Location: L�Ave Maria
(50.7161°N, 1.5911°E)
Time: 23:43:28
(UTC+00:00)

Cosmos 1805 Rocket - Pass Details

Date: 10 July 2020
Orbit: 607 x 629 km, 82.5° (Epoch: 14 August)

Event Time Altitude Azimuth Distance (km) Brightness Sun altitude
Exits shadow 23:49:06 32° 154° (SSE) 1,051 4.2 -17.2°
Maximum altitude 23:50:48 53° 95° (E) 756 3.9 -17.2°
Drops below altitude 10° 23:55:04 10° 19° (NNE) 1,983 7.3 -17.2°
Sets 23:57:20 0° 14° (NNE) 2,896 8.5 -17.2°
